カタログに戻る

STARLINK-37122

運用中通信SSO
NORAD 68678·PAYLOAD·🇺🇸 United States

打ち上げ Apr 11, 2026 から Vandenberg Space Force Base

Loading…

次のパス (今後24時間)

TLE

最新Source: CelesTrak SupGP

元期: Sep 15, 2026, 04:05 UTC

1 68678C 26077S   26258.17062500 -.00010213  00000+0 -31692-3 0  2581
2 68678  97.2847 128.1665 0001503  96.7943  56.0079 15.33455676    13

AllMySatでSTARLINK-37122をリアルタイム追跡

Download on the App Store